sat.trackr.live / text

‹ back to catalog

ONEWEB-0329

NORAD 49107 · 2021-075AJ

PAYLOAD ACTIVE UNKNOWN

§ Identity

Operator
Country
UK
Launch date
2021-08-21
Launch site
TYMSC
Launch vehicle
Mass (kg)
RCS (m²)

Purposes: comms

External: N2YO · Heavens-Above · Gunter

§ Orbital elements

Epoch: 2026-09-14T06:07:09.601536Z

Period
109.29 min
Inclination
87.9208°
Eccentricity
0.0001801
Mean motion
13.17650804 rev/d
Perigee alt
1,192.3 km
Apogee alt
1,195.1 km
Semi-major
7,571.8 km
B*
2.8846e-4
RAAN
348.1800°
Arg perigee
104.3864°
Mean anomaly
255.7467°
Rev number
24,531

§ Raw data

ONEWEB-03291 49107U 21075AJ  26257.25497224  .00000125  00000+0  28846-3 0  99912 49107  87.9208 348.1800 0001801 104.3864 255.7467 13.17650804245313

JSON: /api/v1/satellites/49107 · /tle

For live sub-satellite position, see the globe view (requires WebGL).

§ Visibility from observer

Set your observer location to see the next 7 days of passes ≥ 10°. The values pass through the URL so the page stays shareable.

No JS? Fill the form by hand. The geolocation button needs JavaScript.